Fort Lewis, WA
on Saturday, November 17, 2012

Saturday
Previous Day Next Day
Daily Summary
 ActualAverage (KOLM)Record (KOLM)
Temperature
Mean Temperature °F 43°F  
Max Temperature 55°F 50°F 61°F (1995)
Min Temperature 41°F 36°F 18°F (1961)
Degree Days
Heating Degree Days 17 22  
Month to date heating degree days 344  
Since 1 July heating degree days 1138  
Cooling Degree Days 0 0  
Month to date cooling degree days 0  
Year to date cooling degree days 106  
Moisture
Dew Point 44°F   
Average Humidity 94    
Maximum Humidity 100    
Minimum Humidity 68    
Precipitation
Precipitation 0.22 in 0.31 in 1.61 in (1959)
Month to date precipitation 4.68  
Year to date precipitation 38.59  
Wind
Wind Speed 6 mph   
Max Wind Speed 18 mph   
Max Gust Speed 25 mph   
Visibility 9 miles   
Events Rain   

Key: T is trace of precipitation, MM is missing value
Source: NWS Daily Summary
Time(PST)TemperatureDew PointHumidity Pressure Visibility Wind DirectionWind SpeedGust SpeedPrecipitationEvents Conditions
12:08 AM 44.6°F 44.6°F 100% 29.68 in 10.0 miles SW 3.5 mph - N/A   Overcast
12:10 AM 44.6°F 44.6°F 100% 29.68 in 10.0 miles WSW 4.6 mph - N/A   Light Drizzle
12:27 AM 46.4°F 44.6°F 93% 29.67 in 10.0 miles WNW 2.3 mph - N/A   Mostly Cloudy
12:47 AM 46.4°F 44.6°F 93% 29.67 in 9.0 miles West 3.5 mph - N/A   Light Drizzle
12:51 AM 46.4°F 44.6°F 93% 29.67 in 9.0 miles West 6.9 mph - N/A   Light Drizzle
12:57 AM 46.4°F 44.6°F 93% 29.67 in 8.0 miles West 4.6 mph - N/A   Overcast
12:58 AM 45.5°F 45.3°F 99% 29.69 in 8.0 miles West 4.6 mph - 0.01 in   Overcast
1:58 AM 45.7°F 45.3°F 99% 29.65 in 10.0 miles ENE 3.5 mph - 0.00 in   Overcast
2:08 AM 44.6°F 44.6°F 100% 29.63 in 8.0 miles Calm Calm - N/A   Overcast
2:48 AM 44.6°F 44.6°F 100% 29.61 in 10.0 miles SW 2.3 mph - N/A   Mostly Cloudy
2:58 AM 45.0°F 44.8°F 99% 29.63 in 8.0 miles West 4.6 mph - N/A   Mostly Cloudy
3:58 AM 45.3°F 45.1°F 99% 29.61 in 8.0 miles West 1.2 mph - N/A   Overcast
4:28 AM 44.6°F 44.6°F 100% 29.58 in 10.0 miles East 1.2 mph - N/A   Overcast
4:38 AM 44.6°F 44.6°F 100% 29.57 in 9.0 miles East 2.3 mph - N/A   Overcast
4:58 AM 45.5°F 45.3°F 99% 29.59 in 9.0 miles East 2.3 mph - N/A   Overcast
5:23 AM 44.6°F 44.6°F 100% 29.56 in 10.0 miles SSE 3.5 mph - N/A   Overcast
5:58 AM 45.1°F 45.0°F 99% 29.58 in 10.0 miles SE 3.5 mph - N/A   Overcast
6:58 AM 46.0°F 45.7°F 99% 29.56 in 10.0 miles East 3.5 mph - N/A   Mostly Cloudy
7:58 AM 46.6°F 46.4°F 99% 29.55 in 10.0 miles SSW 2.3 mph - N/A   Overcast
8:58 AM 47.3°F 46.9°F 99% 29.53 in 10.0 miles Calm Calm - N/A   Overcast
9:58 AM 54.0°F 46.6°F 76% 29.50 in 10.0 miles ESE 4.6 mph - N/A   Scattered Clouds
10:58 AM 55.6°F 45.3°F 68% 29.50 in 10.0 miles SSW 9.2 mph - N/A   Mostly Cloudy
11:06 AM 51.8°F 48.2°F 88% 29.50 in 10.0 miles SW 12.7 mph 25.3 mph N/A   Mostly Cloudy
11:07 AM 51.8°F 48.2°F 88% 29.50 in 10.0 miles SSW 13.8 mph 25.3 mph N/A   Light Drizzle
11:12 AM 51.8°F 48.2°F 88% 29.51 in 5.0 miles SW 18.4 mph 24.2 mph N/A   Light Drizzle
11:22 AM 50.0°F 48.2°F 94% 29.51 in 2.5 miles SW 15.0 mph 24.2 mph N/A   Overcast
11:23 AM 50.0°F 48.2°F 94% 29.51 in 3.0 miles SW 13.8 mph 24.2 mph N/A Rain Light Rain
11:24 AM 50.0°F 48.2°F 94% 29.52 in 4.0 miles SSW 11.5 mph - N/A   Overcast
11:29 AM 50.0°F 48.2°F 94% 29.52 in 4.0 miles SSW 9.2 mph - N/A   Overcast
11:46 AM 48.2°F 46.4°F 93% 29.53 in 7.0 miles SSW 13.8 mph 21.9 mph N/A Rain Light Rain
11:58 AM 48.2°F 46.4°F 93% 29.55 in 9.0 miles South 12.7 mph - 0.09 in Rain Light Rain
12:04 PM 48.2°F 44.6°F 87% 29.54 in 10.0 miles SSW 11.5 mph - N/A Rain Light Rain
12:05 PM 46.4°F 44.6°F 93% 29.54 in 10.0 miles SSW 9.2 mph - N/A   Overcast
12:11 PM 46.4°F 44.6°F 93% 29.54 in 10.0 miles SSW 13.8 mph 18.4 mph N/A   Light Drizzle
12:29 PM 46.4°F 44.6°F 93% 29.55 in 10.0 miles South 11.5 mph 19.6 mph N/A   Overcast
12:56 PM 46.4°F 44.6°F 93% 29.56 in 9.0 miles South 12.7 mph - N/A Rain Light Rain
12:58 PM 45.9°F 44.1°F 93% 29.58 in 9.0 miles South 12.7 mph - 0.01 in Rain Light Rain
1:55 PM 45.1°F 43.3°F 93% 29.60 in 9.0 miles South 9.2 mph - 0.06 in Rain Light Rain
2:55 PM 45.3°F 43.0°F 92% 29.61 in 9.0 miles South 9.2 mph - 0.04 in Rain Light Rain
3:43 PM 42.8°F 41.0°F 93% 29.62 in 10.0 miles SSE 10.4 mph - N/A   Mostly Cloudy
3:49 PM 42.8°F 41.0°F 93% 29.62 in 10.0 miles SE 11.5 mph - N/A   Scattered Clouds
3:55 PM 42.8°F 41.0°F 93% 29.62 in 10.0 miles SE 11.5 mph - N/A   Scattered Clouds
4:55 PM 43.2°F 40.6°F 91% 29.64 in 7.0 miles SSE 6.9 mph - N/A   Overcast
5:55 PM 43.2°F 41.5°F 94% 29.64 in 7.0 miles SSE 6.9 mph - N/A   Mostly Cloudy
6:55 PM 42.8°F 39.2°F 87% 29.65 in 7.0 miles SSE 6.9 mph - N/A   Partly Cloudy
7:55 PM 41.0°F 39.2°F 93% 29.66 in 10.0 miles SSE 6.9 mph - N/A   Partly Cloudy
8:55 PM 41.0°F 39.2°F 93% 29.66 in 10.0 miles SSE 6.9 mph - N/A   Mostly Cloudy
9:55 PM 42.8°F 39.2°F 87% 29.73 in 10.0 miles South 10.4 mph - N/A   Overcast
10:55 PM 43.2°F 39.9°F 88% 29.72 in 10.0 miles SSE 11.5 mph - 0.01 in   Mostly Cloudy
11:59 PM 41.0°F 39.2°F 93% 29.72 in 10.0 miles South 9.2 mph - N/A   Scattered Clouds
Moon Phase
Nov. 17 Nov. 20 Nov. 28 Dec. 06 Dec. 13
Sunrise:07:17 AM (PST) Moon Rise:11:06 AM (PST)11/17
Sunset:04:32 PM (PST) Moon Set:08:50 PM (PST)11/17

Copyright © 2014 The Weather Underground, Inc.